Regional Weather Roundup
Issued by NWS

Home | Current Version | Previous Version | Text Only | Print | Product List | Glossary On
Versions: 1 2 3 4 5 6 7 8 9 10 11 12 13 14 15 16 17 18 19 20 21 22 23 24 25 26 27 28 29 30 31 32 33 34 35 36 37 38 39 40 41 42 43 44 45 46 47 48 49 50
245
ASUS43 KBIS 041602
RWRND

NORTH DAKOTA REGIONAL WEATHER ROUNDUP
NATIONAL WEATHER SERVICE BISMARCK ND
1000 AM CST SUN DEC 04 2016

NOTE: "FAIR" INDICATES FEW OR NO CLOUDS BELOW 12,000 FEET WITH NO
SIGNIFICANT WEATHER AND/OR OBSTRUCTIONS TO VISIBILITY.


NDZ001>003-009>011-017-041700-
NORTHWEST NORTH DAKOTA

CITY           SKY/WX    TMP DP  RH WIND       PRES   REMARKS
WILLISTON      SUNNY     21  18  88 SW8       29.75F WCI  11
MINOT          CLOUDY    30  26  85 W14       29.70F WCI  19
MINOT AFB      CLOUDY    28  26  90 NW20      29.69F WCI  15
$$

NDZ018>021-031>035-040>046-041700-
SOUTHWEST NORTH DAKOTA

CITY           SKY/WX    TMP DP  RH WIND       PRES   REMARKS
BISMARCK       CLOUDY    32  28  85 W13       29.78R
DICKINSON      SUNNY     23  16  74 W15       29.74S WCI  10
GARRISON         N/A     31  27  85 W18       29.72S WCI  19
HETTINGER ARPT SUNNY     25  17  72 W10       29.80F WCI  15
$$

NDZ004>008-012>016-024-026-027-054-041700-
NORTHEAST NORTH DAKOTA

CITY           SKY/WX    TMP DP  RH WIND       PRES   REMARKS
GRAND FORKS    CLOUDY    34  32  92 S8        29.69S
GRND FRKS AFB  CLOUDY    34  31  90 W9        29.69S
DEVILS LAKE    CLOUDY    27  25  92 W15       29.67F FOG     WCI  15
$$

NDZ022-023-025-028>030-036>039-047>053-041700-
SOUTHEAST NORTH DAKOTA

CITY           SKY/WX    TMP DP  RH WIND       PRES   REMARKS
FARGO          LGT SNOW  33  31  92 S12       29.72F VSB 1
JAMESTOWN      CLOUDY    32  27  81 NW16G23   29.72R
$$





USA.gov is the U.S. government's official web portal to all federal, state and local government web resources and services.